Amateur Radio Satellites - All Passes

Search period start: 21 May 2013 16:24
Search period end: 22 May 2013 16:24
Location: Innerarity Island Observatory, 30.3139°N, 87.4867°W

Satellite Date Start Highest point End Downlink Frequencies (MHz)
Time Altitude Azimuth
PCSat 21 May 16:24:29 16:28:18 19° 55° (NE) 16:32:06 145.825 MHz
Sapphire 21 May 16:56:32 17:01:29 35° 60° (ENE) 17:06:24 437.095 MHz 1200 baud AX-25 AFSK
RS-15 21 May 17:02:04 17:14:12 74° 298° (WNW) 17:25:54 29.354 - 29.394 USB, Beacon 29.352 USB
AO-7 21 May 17:04:41 17:12:58 89° 73° (ENE) 17:21:19 29.400 - 29.500 MHz
PANSAT 21 May 17:37:08 17:39:26 15° 204° (SSW) 17:41:43 not established
PCSat 21 May 18:06:45 18:11:55 46° 250° (WSW) 18:17:04 145.825 MHz
STRAND 1 21 May 18:26:52 18:31:12 27° 97° (E) 18:35:30 ?
Sapphire 21 May 18:40:26 18:44:39 23° 254° (WSW) 18:48:51 437.095 MHz 1200 baud AX-25 AFSK
SO-50 21 May 18:45:10 18:49:40 74° 244° (WSW) 18:54:06 436.795 FM
AO-7 21 May 19:02:54 19:06:28 13° 266° (W) 19:10:03 29.400 - 29.500 MHz
JAS-1B 21 May 19:03:50 19:12:30 42° 70° (ENE) 19:20:08 435.800 - 435.900 CW/SSB
SO-67 21 May 19:17:54 19:20:42 22° 73° (ENE) 19:23:31 435.3500 MHz FM
RS-15 21 May 19:21:10 19:28:51 19° 321° (NW) 19:36:22 29.354 - 29.394 USB, Beacon 29.352 USB
Hamsat 21 May 19:25:10 19:29:20 70° 259° (W) 19:33:33 145.90 MHz
STRAND 1 21 May 20:06:00 20:10:15 27° 290° (WNW) 20:14:30 ?
UOSAT-12 21 May 20:14:48 20:17:48 17° 53° (NE) 20:20:48 437.025 FM, 437.400 FM
HO-68 21 May 20:25:31 20:31:01 25° 64° (ENE) 20:36:30 435.675 MHz FM
SO-67 21 May 20:52:06 20:54:05 14° 265° (W) 20:56:05 435.3500 MHz FM
JAS-1B 21 May 20:53:58 21:02:46 40° 260° (W) 21:10:41 435.800 - 435.900 CW/SSB
JAS-2 21 May 21:20:33 21:27:43 48° 71° (ENE) 21:35:09 435.800 - 435.900 CW/SSB, 435.910 FM
Oscar 11 21 May 21:20:47 21:24:22 26° 72° (ENE) 21:27:58 145.825 FM, Beacon 2401.500 USB
UOSAT-12 21 May 21:53:48 21:58:07 41° 247° (WSW) 22:02:25 437.025 FM, 437.400 FM
HO-68 21 May 22:11:22 22:18:14 51° 258° (WSW) 22:25:09 435.675 MHz FM
OPAL 21 May 22:24:37 22:29:49 80° 74° (ENE) 22:35:01 ?
KITSAT 1 21 May 22:39:57 22:47:48 61° 111° (ESE) 22:55:44 435.175 FM
Oscar 11 21 May 22:57:27 23:00:31 19° 264° (W) 23:03:36 145.825 FM, Beacon 2401.500 USB
JAS-2 21 May 23:06:23 23:12:44 30° 265° (W) 23:19:23 435.800 - 435.900 CW/SSB, 435.910 FM
RS-15 22 May 00:01:36 00:08:38 18° 38° (NE) 00:15:30 29.354 - 29.394 USB, Beacon 29.352 USB
KITSAT 1 22 May 00:37:11 00:43:37 26° 308° (NW) 00:50:06 435.175 FM
AO-40 22 May 01:24:41 02:59:33 46° 231° (SW) 08:03:55 Beacon 2401.320
ISS 22 May 01:28:50 01:31:07 18° 127° (SE) 01:33:24 145.800 FM
MaSat-1 22 May 01:31:28 01:38:48 64° 109° (ESE) 01:45:07 437.345 MHz
Uribyol 2 22 May 01:53:05 01:57:06 22° 96° (E) 02:01:05 436.500 FM
Oscar 19 22 May 01:57:53 02:02:19 29° 97° (E) 02:06:42 437.125 CW, 437.150 USB
RS-15 22 May 02:12:05 02:23:08 75° 62° (ENE) 02:33:59 29.354 - 29.394 USB, Beacon 29.352 USB
Oscar 16 22 May 02:36:27 02:41:39 89° 283° (WNW) 02:46:48 437.025 USB, Beacon 2401.1428
AO-27 22 May 02:43:16 02:48:30 75° 102° (ESE) 02:53:43 436.795 MHz FM
ITAMSAT 1 22 May 02:50:08 02:55:23 86° 103° (ESE) 03:00:37 435.822 SSB
ISS 22 May 03:04:45 03:07:38 28° 320° (NW) 03:10:33 145.800 FM
Gurwin Techsat 1B 22 May 03:06:06 03:07:19 11° 92° (E) 03:08:32 435.225 FM
MaSat-1 22 May 03:16:03 03:21:07 21° 299° (WNW) 03:25:41 437.345 MHz
Uribyol 2 22 May 03:31:54 03:36:33 33° 289° (WNW) 03:41:12 436.500 FM
Oscar 19 22 May 03:37:20 03:41:29 25° 290° (WNW) 03:45:37 437.125 CW, 437.150 USB
Uosat F 22 May 03:39:22 03:43:53 33° 98° (E) 03:48:22 435.120 FM
AO-Echo 22 May 03:46:55 03:51:40 74° 284° (WNW) 03:56:33 ?
TMSAT-1 22 May 04:21:08 04:26:15 48° 100° (E) 04:31:21 436.925 FM
RS-15 22 May 04:26:46 04:34:13 22° 258° (WSW) 04:41:40 29.354 - 29.394 USB, Beacon 29.352 USB
AO-27 22 May 04:26:57 04:27:19 10° 296° (WNW) 04:27:42 436.795 MHz FM
Gurwin Techsat 1B 22 May 04:42:21 04:47:37 66° 285° (WNW) 04:52:52 435.225 FM
AO-7 22 May 05:13:05 05:21:00 45° 101° (ESE) 05:28:51 29.400 - 29.500 MHz
Uosat F 22 May 05:18:41 05:22:25 21° 291° (WNW) 05:26:10 435.120 FM
STRAND 1 22 May 05:37:55 05:41:46 22° 69° (ENE) 05:45:38 ?
Saudisat 1A 22 May 05:54:37 05:59:05 60° 299° (WNW) 06:03:38 436.775 MHz
TMSAT-1 22 May 06:02:31 06:05:45 17° 293° (WNW) 06:08:58 436.925 FM
KITSAT 1 22 May 06:43:12 06:45:33 11° 42° (NE) 06:47:54 435.175 FM
PCSat 22 May 06:59:25 07:04:38 53° 111° (ESE) 07:09:53 145.825 MHz
AO-7 22 May 07:06:14 07:13:27 34° 296° (WNW) 07:20:41 29.400 - 29.500 MHz
STRAND 1 22 May 07:16:13 07:20:43 32° 262° (W) 07:25:16 ?
Hamsat 22 May 07:17:38 07:21:34 32° 98° (E) 07:25:30 145.90 MHz
SO-50 22 May 07:17:48 07:19:21 11° 107° (ESE) 07:20:53 436.795 FM
Sapphire 22 May 07:32:09 07:37:32 79° 295° (WNW) 07:42:58 437.095 MHz 1200 baud AX-25 AFSK
SO-67 22 May 08:22:47 08:26:21 67° 100° (E) 08:29:53 435.3500 MHz FM
KITSAT 1 22 May 08:34:36 08:42:38 62° 62° (ENE) 08:50:37 435.175 FM
PCSat 22 May 08:44:51 08:48:20 17° 305° (NW) 08:51:50 145.825 MHz
JAS-1B 22 May 08:47:03 08:52:57 83° 284° (WNW) 08:58:37 435.800 - 435.900 CW/SSB
Hamsat 22 May 08:54:38 08:57:20 16° 290° (WNW) 09:00:03 145.90 MHz
SO-50 22 May 08:54:44 08:59:28 58° 299° (WNW) 09:04:10 436.795 FM
ISS 22 May 09:37:59 09:40:33 20° 38° (NE) 09:43:07 145.800 FM
HO-68 22 May 09:45:16 09:52:01 43° 100° (E) 09:58:44 435.675 MHz FM
UOSAT-12 22 May 10:21:21 10:24:15 17° 109° (ESE) 10:27:10 437.025 FM, 437.400 FM
JAS-2 22 May 10:22:39 10:29:17 64° 100° (E) 10:35:05 435.800 - 435.900 CW/SSB, 435.910 FM
KITSAT 1 22 May 10:31:27 10:37:21 23° 256° (WSW) 10:43:16 435.175 FM
PANSAT 22 May 10:33:41 10:36:37 20° 158° (SSE) 10:39:33 not established
OPAL 22 May 10:40:58 10:45:28 34° 100° (E) 10:49:55 ?
Oscar 11 22 May 10:49:44 10:54:04 67° 284° (WNW) 10:58:24 145.825 FM, Beacon 2401.500 USB
ISS 22 May 11:14:19 11:17:15 28° 231° (SW) 11:20:09 145.800 FM
HO-68 22 May 11:33:28 11:39:23 29° 294° (WNW) 11:45:19 435.675 MHz FM
UOSAT-12 22 May 11:59:58 12:04:05 35° 302° (WNW) 12:08:15 437.025 FM, 437.400 FM
MaSat-1 22 May 12:05:58 12:08:55 77° 68° (ENE) 12:11:27 437.345 MHz
JAS-2 22 May 12:09:35 12:13:27 16° 298° (WNW) 12:17:05 435.800 - 435.900 CW/SSB, 435.910 FM
PANSAT 22 May 12:12:52 12:16:39 51° 169° (S) 12:20:26 not established
OPAL 22 May 12:20:28 12:24:05 21° 293° (WNW) 12:27:41 ?
Uribyol 2 22 May 13:06:08 13:09:42 19° 68° (ENE) 13:13:16 436.500 FM
Oscar 19 22 May 13:09:36 13:13:42 24° 70° (ENE) 13:17:48 437.125 CW, 437.150 USB
Oscar 16 22 May 13:47:37 13:52:47 74° 76° (ENE) 13:57:59 437.025 USB, Beacon 2401.1428
PANSAT 22 May 13:53:02 13:56:54 67° 182° (S) 14:00:46 not established
AO-27 22 May 13:55:49 14:00:54 63° 75° (ENE) 14:06:01 436.795 MHz FM
ITAMSAT 1 22 May 14:02:31 14:07:38 72° 75° (ENE) 14:12:48 435.822 SSB
RS-15 22 May 14:20:36 14:27:15 17° 100° (E) 14:33:45 29.354 - 29.394 USB, Beacon 29.352 USB
Gurwin Techsat 1B 22 May 14:22:45 14:23:39 10° 64° (ENE) 14:24:34 435.225 FM
Saudisat 1A 22 May 14:28:10 14:31:42 22° 55° (NE) 14:35:11 436.775 MHz
Uribyol 2 22 May 14:44:03 14:48:50 39° 261° (W) 14:53:41 436.500 FM
Uosat F 22 May 14:47:40 14:51:42 25° 70° (ENE) 14:55:44 435.120 FM
Oscar 19 22 May 14:48:18 14:52:50 31° 262° (W) 14:57:25 437.125 CW, 437.150 USB
AO-Echo 22 May 14:54:17 14:59:12 77° 76° (ENE) 15:03:59 ?
PANSAT 22 May 15:33:27 15:37:06 39° 195° (SSW) 15:40:45 not established
TMSAT-1 22 May 15:36:24 15:41:20 42° 73° (ENE) 15:46:18 436.925 FM
AO-27 22 May 15:39:31 15:40:44 11° 267° (W) 15:41:57 436.795 MHz FM
PCSat 22 May 15:55:03 15:57:46 14° 53° (NE) 16:00:29 145.825 MHz
Gurwin Techsat 1B 22 May 15:57:38 16:02:56 75° 258° (WSW) 16:08:15 435.225 FM
AO-7 22 May 16:06:08 16:13:29 37° 65° (ENE) 16:20:50 29.400 - 29.500 MHz
Saudisat 1A 22 May 16:07:31 16:11:21 28° 249° (WSW) 16:15:07 436.775 MHz

Developed and maintained by Chris Peat, Heavens-Above GmbH. Please read the updated FAQ before sending e-mail. Imprint. DLR
